Regional Weather Roundup
Issued by NWS San Angelo, TX

Home | Current Version | Previous Version | Text Only | Print | Product List | Glossary On
Versions: 1 2 3 4 5 6 7 8 9 10 11 12 13 14 15 16 17 18 19 20 21 22 23 24 25 26 27 28 29 30 31 32 33 34 35 36 37 38 39 40 41 42 43 44 45 46 47 48 49 50
000
ASUS44 KSJT 262211
RWRSJT
WEST CENTRAL TEXAS REGIONAL WEATHER ROUNDUP
NATIONAL WEATHER SERVICE SAN ANGELO TX
500 PM CDT MON SEP 26 2016

NOTE: "FAIR" INDICATES FEW OR NO CLOUDS BELOW 12,000 FEET WITH NO
SIGNIFICANT WEATHER AND/OR OBSTRUCTIONS TO VISIBILITY.

TXZ049-054-064>066-071>073-076>078-098-099-113-114-127-128-139-140-
154-155-168>170-262300
...LOCATIONS ACROSS WEST CENTRAL TEXAS...

CITY           SKY/WX    TMP DP  RH WIND       PRES   REMARKS
SAN ANGELO     CLOUDY    71  54  54 N13       30.18S
ABILENE        MOSUNNY   70  51  51 NE10      30.19F
DYESS AFB      PTSUNNY   71  48  43 NE14      30.18F
JUNCTION       CLOUDY    64  32  30 N6        30.16S
SWEETWATER     PTSUNNY   69  43  38 NE14G20   30.24F
BROWNWOOD      CLOUDY    72  55  56 N13G20    30.14F
COLEMAN        CLOUDY    70  56  60 N15       30.16F
SONORA         CLOUDY    64  55  72 N16G22    30.22S
OZONA          CLOUDY    66  50  55 N10G21    30.22S
BRADY          NOT AVBL
$$

TEXAS PANHANDLE/OKLAHOMA PANHANDLE

CITY           SKY/WX    TMP DP  RH WIND       PRES   REMARKS
AMARILLO       SUNNY     74  35  24 E8        30.31F
BORGER         SUNNY     75  34  22 E7        30.28F
CANADIAN       SUNNY     75  37  25 CALM      30.26S
DALHART        SUNNY     75  32  20 VRB3      30.32F
DUMAS          CLEAR     78  34  20 CALM      30.31S
GUYMON         NOT AVBL
HEREFORD       PTCLDY    74  38  26 SE7G22    30.32F
PAMPA          CLEAR     74  35  24 CALM      30.30F
PERRYTON       SUNNY     78  32  19 CALM      30.25F
$$

SOUTHERN PANHANDLE/SOUTH PLAINS/ROLLING PLAINS

CITY           SKY/WX    TMP DP  RH WIND       PRES   REMARKS
LUBBOCK        CLOUDY    69  36  29 E14       30.28F
SNYDER           N/A     70  40  33 CALM      30.24S
CHILDRESS      PTSUNNY   72  38  29 NE9       30.26F
SEMINOLE       CLOUDY    65  42  43 E6        30.31F
$$

PERMIAN BASIN

CITY           SKY/WX    TMP DP  RH WIND       PRES   REMARKS
MIDLAND        CLOUDY    69  36  29 N13       30.26F
ODESSA         CLOUDY    68  38  33 NE12      30.28F
WINK           CLOUDY    61  53  75 W6        30.28S
$$

FAR WEST/SOUTHWEST MOUNTAINS/TRANS PECOS

CITY           SKY/WX    TMP DP  RH WIND       PRES   REMARKS
ALPINE         CLOUDY    49  49  99 NE9       30.39S
DRYDEN           N/A     60  59  96 N8        30.21
EL PASO        CLOUDY    59  45  59 E14       30.30R
FORT STOCKTON  LGT RAIN  55  54  96 W9        30.29F
GUADALUPE PASS CLOUDY    52  43  71 NE33G44   30.33S
MARFA          LGT RAIN N/A N/A N/A N13G20    30.33R
PECOS          RAIN      58  56  94 W7          N/A
$$

DALLAS/FORT WORTH METROPLEX

CITY           SKY/WX    TMP DP  RH WIND       PRES   REMARKS
DFW AIRPORT    CLOUDY    66  58  75 NE8       30.12F
FTW MEACHAM    CLOUDY    68  60  75 NE7       30.13F
DAL-EXECUTIVE  LGT RAIN  63  61  93 N10       30.12F FOG
GRAND PRAIRIE  CLOUDY    66  55  68 N9G17     30.14F
ADDISON        CLOUDY    64  64 100 N10G16    30.13F FOG
MESQUITE       CLOUDY    64  63  94 N12G17    30.12F
LANCASTER      CLOUDY    65  60  85 N10G18    30.13F
$$

NORTH CENTRAL TEXAS

CITY           SKY/WX    TMP DP  RH WIND       PRES   REMARKS
SHRMAN/DENISON MOCLDY    72  62  70 E7        30.13F
GAINESVILLE      N/A     75  53  46 N8        30.15F
BRIDGEPORT     CLOUDY    75  53  47 NE9       30.15F
DENTON         CLOUDY    69  61  75 SE6       30.13F
WAXAHACHIE     CLOUDY    62  62 100 N12G17    30.13F
GRANBURY       CLOUDY    70  59  67 NE7       30.14F
$$

WESTERN NORTH TEXAS

CITY           SKY/WX    TMP DP  RH WIND       PRES   REMARKS
WICHITA FALLS  PTSUNNY   74  41  30 N14       30.18F
VERNON         CLEAR     77  30  17 N9G21     30.22F
BRECKENRIDGE     N/A     75  50  41 N13G18    30.16F HAZE
COMANCHE       CLOUDY    68  60  74 NE7       30.15F
$$

CENTRAL AND SOUTH CENTRAL TEXAS

CITY           SKY/WX    TMP DP  RH WIND       PRES   REMARKS
AUSTIN/BERGSTM CLOUDY    71  66  84 N13       30.06F
WACO           CLOUDY    68  61  78 N17       30.10F
HILLSBORO      CLOUDY    63  59  88 N14       30.12F
TEMPLE         CLOUDY    68  61  78 N14G22    30.09F
KILLEEN-GRAY   CLOUDY    67  61  78 NE14      30.10S
FORT HOOD      CLOUDY    67  60  77 N16       30.08S
GEORGETOWN     CLOUDY    70  61  73 N15       30.09S
LAGO VISTA     CLOUDY    68  64  89 NE10G17   30.09F
SAN MARCOS     CLOUDY    70  66  88 N14       30.08F
NEW BRAUNFELS  CLOUDY    72  67  84 N13       30.04F
RANDOLPH AFB   CLOUDY    73  69  88 N13       30.05R
SAN ANTONIO    CLOUDY    73  66  78 N13       30.06R
STINSON        PTSUNNY   77  67  71 NE13      30.02R
PLEASANTON     NOT AVBL
LA GRANGE      CLOUDY    78  72  82 N10       30.00F
GIDDINGS       CLOUDY    73  67  83 N9G16     30.07F
$$

EAST TEXAS

CITY           SKY/WX    TMP DP  RH WIND       PRES   REMARKS
PARIS          CLOUDY    64  57  77 N10       30.12F
CLARKSVILLE    NOT AVBL
TYLER          CLOUDY    75  67  76 N10       30.06S
LONGVIEW       CLOUDY    77  67  71 N5        30.03F
PALESTINE      CLOUDY    74  70  87 N9        30.06S
NACOGDOCHES    PTSUNNY   82  73  74 N8        29.99S
$$

TEXAS HILL COUNTRY AND EDWARDS PLATEAU

CITY           SKY/WX    TMP DP  RH WIND       PRES   REMARKS
LLANO          CLOUDY    66  66 100 N7        30.15F
HORSESHOE BAY  CLOUDY    67  63  87 N6        30.11F
KERRVILLE      CLOUDY    66  63  89 N13       30.12R
FREDERICKSBRG  CLOUDY    62  59  89 N7G17     30.13S
ROCKSPRINGS    CLOUDY    63  59  88 N10G18    30.17R
HONDO          CLOUDY    78  67  68 N14       30.05R
UVALDE         CLOUDY    76  67  71 N9        30.05S
DEL RIO        RAIN      68  64  87 NW13      30.10R FOG
$$

SOUTHEAST TEXAS

CITY           SKY/WX    TMP DP  RH WIND       PRES   REMARKS
COLLEGE STN    CLOUDY    74  70  87 N12       30.03S FOG
CALDWELL       NOT AVBL
CROCKETT       NOT AVBL
BRENHAM        CLOUDY    77  73  87 NW13      30.03S FOG
HUNTSVILLE     PTSUNNY   79  72  79 N10       30.01F
CONROE         PTSUNNY   82  72  71 N9        29.98F
HOUSTON BUSH   PTSUNNY   85  72  65 N9        29.97F
HOUSTON HOBBY  CLOUDY    79  72  79 SE7       29.96R THUNDER
PERLAND        LGT RAIN  75  72  90 S6        29.98F
WHARTON        CLOUDY   N/A N/A N/A SE3       29.97S
$$

THE UPPER TEXAS COAST

CITY           SKY/WX    TMP DP  RH WIND       PRES   REMARKS
ORANGE         LGT RAIN  73  73 100 CALM      29.97F
PORT ARTHUR    LGT RAIN  77  75  93 CALM      29.96F
GALVESTON      CLOUDY    83  75  77 NE6       29.96F
ANGLETON       PTSUNNY   80  76  87 E3        29.96S
BAY CITY       LGT RAIN  76  75  97 CALM      29.96F
$$

TEXAS COASTAL BEND, RIO GRANDE PLAINS DEEP SOUTH TEXAS

CITY           SKY/WX    TMP DP  RH WIND       PRES   REMARKS
VICTORIA       CLOUDY    84  73  69 N13       29.96F
BEEVILLE       CLOUDY    80  73  77 NE13      29.98R
ROCKPORT       CLOUDY    79  73  82 N13       29.97R
PORT ARANSAS   CLOUDY    82  74  78 E6        29.96S
PORT LAVACA    CLOUDY    77  74  91 CALM      29.98R
CORPUS CHRISTI CLOUDY    80  72  76 E6        29.95F
KINGSVILLE NAS CLOUDY    79  77  94 NE9       29.95F
COTULLA        PTSUNNY   84  71  65 NE9       29.99F
LAREDO         LGT RAIN  77  73  87 E9        29.99R
BROWNSVILLE    CLOUDY    86  74  67 NE12      29.92S
PORT ISABEL    PTSUNNY   86  72  62 NE13      29.91F
HEBBRONVILLE   CLOUDY    78  72  82 NE9       30.00S
MCALLEN        LGT RAIN  78  74  87 NE6       29.94F FOG
WESLACO        PTSUNNY   80  71  72 NE9       29.92F
FALFURRIAS     CLOUDY    78  74  87 N7        29.95S
EDINBURG       MOCLDY    86  71  60 E12       29.94S
$$



USA.gov is the U.S. government's official web portal to all federal, state and local government web resources and services.